User: anonymous   Login
Location: Degersen
(52.2871°N, 9.5716°E)
Time: 04:21:23
(UTC+00:00)
Language:

USA 32 - Orbit

View from above orbital plane
View from above orbital plane
View from above satellite
View from above satellite

Ground track
Ground track

The orbit is defined by the following mean orbital elements,

1 19460U          26069.80268808 +.00000000 +00000-0 +73779-4 0 00003
2 19460  84.9919 170.2580 0004792  75.4008 284.7717 14.34415254    00
Epoch (UTC): 10 March 2026 19:15:52
Eccentricity: 0.0004792
inclination: 84.9919°
perigee height: 774 km
apogee height: 780 km
right ascension of ascending node: 170.2580°
argument of perigee: 75.4008°
revolutions per day: 14.34415254
mean anomaly at epoch: 284.7717°

The dashed part of the orbit path shows where the satellite is in the earth's shadow,  

DLR